GPS BIIRM-5 (PRN 29)

Last updated on Wed Jul 02 2025 00:03:13 GMT+0000 (Coordinated Universal Time)

1 32384U 07062A 25181.79011124 -.00000075 00000+0 00000+0 0 9998 2 32384 55.3172 288.2586 0032421 159.0103 14.4262 2.00569052128464
UTC large
Height (km)
Speed (km/s)
/
Latitude / Longitude
Inclination (degrees)
Orbital Period (minutes)
Azimuth
Elevation
Range (km)
Doppler Factor

Next 0 passes for location: London (51.5072 / 0.1276)

Sorry there are no passes over London.